| time (UTC) | temp F | wind direction | speed knots | gust knots | rain 1hr in | rain 24hr in | rain mn in | humidity % | barometer mb |
| 20260508115501 | 51 | 338 | 20.9 | 31.3 | 0.03 | 0.78 | 0.28 | 98 | 998.1 |
| 20260508115002 | 52 | 210 | 20.0 | 29.5 | 0.04 | 0.78 | 0.28 | 98 | 998.0 |
| 20260508114501 | 52 | 308 | 20.9 | 36.5 | 0.04 | 0.78 | 0.28 | 98 | 998.1 |
| 20260508114003 | 52 | 182 | 20.9 | 36.5 | 0.05 | 0.78 | 0.28 | 98 | 997.9 |
| 20260508113502 | 53 | 165 | 20.0 | 32.2 | 0.05 | 0.78 | 0.28 | 99 | 997.9 |
| 20260508113002 | 53 | 179 | 20.0 | 32.2 | 0.04 | 0.77 | 0.28 | 98 | 997.6 |
| 20260508112501 | 52 | 311 | 20.9 | 28.7 | 0.04 | 0.77 | 0.28 | 98 | 997.6 |
| 20260508111501 | 52 | 331 | 24.3 | 36.5 | 0.04 | 0.77 | 0.28 | 98 | 997.3 |
| 20260508111002 | 52 | 274 | 24.3 | 38.2 | 0.03 | 0.76 | 0.27 | 98 | 997.1 |
| 20260508110007 | 53 | 165 | 26.9 | 38.2 | 0.04 | 0.76 | 0.26 | 98 | 997.0 |
| 20260508105002 | 53 | 335 | 23.5 | 39.1 | 0.02 | 0.92 | 0.24 | 98 | 996.9 |
| 20260508104002 | 53 | 320 | 24.3 | 36.5 | 0.03 | 0.91 | 0.24 | 98 | 996.7 |
| 20260508103002 | 53 | 195 | 23.5 | 34.8 | 0.03 | 0.91 | 0.24 | 98 | 996.6 |
| 20260508102501 | 53 | 310 | 26.1 | 38.2 | 0.03 | 0.91 | 0.24 | 98 | 996.5 |
| 20260508101002 | 53 | 218 | 27.8 | 40.8 | 0.03 | 0.91 | 0.24 | 98 | 996.1 |
| 20260508100501 | 54 | 185 | 26.9 | 36.5 | 0.02 | 0.91 | 0.23 | 98 | 996.1 |
| 20260508100010 | 54 | 290 | 25.2 | 37.4 | 0.02 | 0.90 | 0.22 | 98 | 996.1 |
| 20260508095501 | 54 | 175 | 25.2 | 38.2 | 0.02 | 0.99 | 0.22 | 97 | 996.0 |
| 20260508095002 | 54 | 169 | 26.1 | 38.2 | 0.02 | 0.99 | 0.22 | 97 | 995.9 |
| 20260508094501 | 54 | 326 | 26.9 | 37.4 | 0.01 | 0.98 | 0.21 | 97 | 995.7 |
| 20260508094001 | 54 | 329 | 26.9 | 37.4 | 0.00 | 0.98 | 0.20 | 97 | 995.5 |
| 20260508093002 | 54 | 309 | 28.7 | 39.1 | 0.02 | 0.98 | 0.20 | 98 | 995.5 |
| 20260508092002 | 54 | 262 | 26.9 | 39.1 | 0.02 | 0.98 | 0.20 | 98 | 995.2 |
| 20260508091501 | 54 | 168 | 26.9 | 38.2 | 0.02 | 0.98 | 0.20 | 98 | 995.0 |
| 20260508091002 | 54 | 171 | 26.1 | 35.6 | 0.05 | 0.98 | 0.20 | 98 | 995.0 |
| 20260508090502 | 54 | 292 | 26.1 | 35.6 | 0.07 | 0.98 | 0.20 | 98 | 995.0 |
| 20260508090009 | 55 | 316 | 26.9 | 40.0 | 0.10 | 0.98 | 0.20 | 98 | 994.9 |
| 20260508085502 | 55 | 199 | 26.1 | 37.4 | 0.12 | 1.02 | 0.20 | 97 | 994.8 |
| 20260508085002 | 55 | 291 | 26.1 | 39.1 | 0.13 | 1.02 | 0.20 | 97 | 994.8 |
| 20260508084502 | 55 | 238 | 28.7 | 39.1 | 0.13 | 1.02 | 0.20 | 96 | 994.8 |
| 20260508084002 | 56 | 336 | 28.7 | 37.4 | 0.13 | 1.02 | 0.20 | 95 | 994.7 |
| 20260508083501 | 56 | 318 | 24.3 | 37.4 | 0.12 | 1.00 | 0.19 | 94 | 994.7 |
| 20260508083002 | 56 | 206 | 22.6 | 39.1 | 0.11 | 0.99 | 0.18 | 94 | 994.6 |
| 20260508082501 | 56 | 162 | 21.7 | 39.1 | 0.11 | 0.99 | 0.18 | 95 | 994.7 |
| 20260508082002 | 56 | 321 | 13.0 | 38.2 | 0.11 | 0.99 | 0.18 | 96 | 994.6 |
| 20260508081501 | 54 | 341 | 7.8 | 16.5 | 0.11 | 0.99 | 0.18 | 96 | 994.7 |
| 20260508081002 | 54 | 296 | 6.1 | 10.4 | 0.08 | 0.96 | 0.15 | 96 | 994.7 |
| 20260508080005 | 54 | 316 | 9.6 | 15.6 | 0.03 | 0.91 | 0.10 | 96 | 994.7 |
| 20260508075500 | 54 | 336 | 12.2 | 17.4 | 0.02 | 1.56 | 0.09 | 95 | 994.6 |
| 20260508075002 | 54 | 344 | 13.0 | 18.2 | 0.01 | 1.55 | 0.08 | 95 | 994.6 |
| 20260508074500 | 55 | 344 | 12.2 | 18.2 | 0.00 | 1.54 | 0.07 | 95 | 994.7 |
| 20260508074001 | 55 | 338 | 12.2 | 18.2 | 0.00 | 1.54 | 0.07 | 95 | 994.7 |
| 20260508073500 | 55 | 341 | 11.3 | 18.2 | 0.00 | 1.54 | 0.07 | 95 | 994.7 |
| 20260508072500 | 55 | 341 | 11.3 | 16.5 | 0.00 | 1.54 | 0.07 | 94 | 994.9 |
| 20260508072001 | 55 | 340 | 11.3 | 15.6 | 0.00 | 1.54 | 0.07 | 94 | 995.1 |
| 20260508071500 | 55 | 341 | 11.3 | 17.4 | 0.00 | 1.54 | 0.07 | 94 | 995.4 |
| 20260508071001 | 55 | 338 | 11.3 | 17.4 | 0.00 | 1.54 | 0.07 | 94 | 995.5 |
| 20260508070501 | 55 | 336 | 13.0 | 18.2 | 0.00 | 1.54 | 0.07 | 93 | 995.7 |
| 20260508070005 | 55 | 343 | 13.0 | 18.2 | 0.00 | 1.54 | 0.07 | 94 | 995.7 |
| 20260508065501 | 55 | 342 | 12.2 | 17.4 | 0.00 | 1.60 | 0.07 | 94 | 995.9 |
| 20260508064501 | 55 | 341 | 12.2 | 17.4 | 0.03 | 1.60 | 0.07 | 93 | 996.1 |
| 20260508064002 | 55 | 339 | 11.3 | 17.4 | 0.04 | 1.60 | 0.07 | 94 | 996.2 |
| 20260508063501 | 55 | 337 | 10.4 | 17.4 | 0.04 | 1.60 | 0.07 | 93 | 996.5 |
| 20260508063002 | 55 | 340 | 10.4 | 17.4 | 0.05 | 1.60 | 0.07 | 94 | 996.6 |
| 20260508062501 | 55 | 328 | 11.3 | 16.5 | 0.06 | 1.60 | 0.07 | 94 | 996.7 |
| 20260508061501 | 55 | 338 | 9.6 | 15.6 | 0.06 | 1.60 | 0.07 | 95 | 996.9 |
| 20260508061002 | 55 | 333 | 8.7 | 13.0 | 0.06 | 1.60 | 0.07 | 94 | 997.0 |
| 20260508060501 | 55 | 340 | 7.8 | 12.2 | 0.07 | 1.60 | 0.07 | 94 | 997.2 |
| 20260508055500 | 55 | 337 | 11.3 | 18.2 | 0.06 | 1.59 | 0.06 | 94 | 997.2 |
| 20260508055001 | 55 | 334 | 12.2 | 18.2 | 0.05 | 1.57 | 0.05 | 94 | 997.4 |
| 20260508054500 | 55 | 338 | 12.2 | 17.4 | 0.04 | 1.57 | 0.04 | 93 | 997.3 |
| 20260508054001 | 55 | 342 | 12.2 | 16.5 | 0.03 | 1.56 | 0.03 | 93 | 997.2 |
| 20260508053500 | 56 | 336 | 13.0 | 18.2 | 0.03 | 1.56 | 0.03 | 93 | 997.2 |
| 20260508053001 | 56 | 334 | 13.0 | 19.1 | 0.02 | 1.55 | 0.02 | 92 | 997.1 |
| 20260508052501 | 56 | 335 | 13.9 | 21.7 | 0.02 | 1.54 | 0.02 | 92 | 997.1 |
| 20260508052001 | 56 | 308 | 14.8 | 21.7 | 0.02 | 1.54 | 0.02 | 92 | 997.1 |
| 20260508051500 | 56 | 336 | 16.5 | 22.6 | 0.01 | 1.54 | 0.01 | 92 | 997.1 |
| 20260508051003 | 56 | 323 | 16.5 | 22.6 | 0.01 | 1.54 | 0.01 | 91 | 996.9 |
| 20260508050500 | 57 | 319 | 15.6 | 22.6 | 0.00 | 1.53 | 0.00 | 91 | 996.9 |
| 20260508045500 | 57 | 329 | 14.8 | 21.7 | 0.00 | 1.53 | 0.00 | 89 | 996.9 |
| 20260508045001 | 57 | 335 | 14.8 | 21.7 | 0.00 | 1.53 | 0.00 | 88 | 997.1 |
| 20260508044500 | 57 | 338 | 13.9 | 20.0 | 0.00 | 1.53 | 0.00 | 88 | 997.2 |
| 20260508044001 | 57 | 324 | 13.0 | 19.1 | 0.00 | 1.53 | 0.00 | 88 | 997.2 |
| 20260508043500 | 57 | 338 | 12.2 | 19.1 | 0.00 | 1.53 | 0.00 | 89 | 997.2 |
| 20260508043002 | 57 | 338 | 12.2 | 18.2 | 0.00 | 1.53 | 0.00 | 89 | 997.1 |
| 20260508041500 | 57 | 335 | 12.2 | 17.4 | 0.00 | 1.53 | 0.00 | 89 | 997.6 |
| 20260508041001 | 58 | 328 | 11.3 | 16.5 | 0.00 | 1.53 | 0.00 | 88 | 997.6 |
| 20260508040500 | 58 | 336 | 12.2 | 24.3 | 0.00 | 1.53 | 0.00 | 87 | 997.5 |
| 20260508040005 | 59 | 331 | 15.6 | 26.9 | 0.00 | 1.53 | 0.00 | 85 | 997.6 |
| 20260508035500 | 59 | 180 | 18.2 | 26.9 | 0.00 | 1.53 | 0.00 | 84 | 997.6 |
| 20260508035002 | 59 | 312 | 17.4 | 26.1 | 0.00 | 1.53 | 0.00 | 83 | 997.5 |
| 20260508034500 | 59 | 272 | 17.4 | 26.1 | 0.00 | 1.53 | 0.00 | 83 | 997.3 |
| 20260508034001 | 59 | 319 | 18.2 | 25.2 | 0.00 | 1.53 | 0.00 | 83 | 997.1 |
| 20260508033500 | 59 | 286 | 19.1 | 26.1 | 0.00 | 1.53 | 0.00 | 83 | 997.1 |
| 20260508033001 | 59 | 165 | 19.1 | 26.9 | 0.00 | 1.53 | 0.00 | 83 | 997.1 |
| 20260508032500 | 59 | 282 | 18.2 | 26.9 | 0.00 | 1.53 | 0.00 | 83 | 996.9 |
| 20260508032001 | 59 | 265 | 13.9 | 24.3 | 0.00 | 1.53 | 0.00 | 83 | 996.9 |
| 20260508031500 | 59 | 328 | 11.3 | 22.6 | 0.00 | 1.53 | 0.00 | 85 | 996.9 |
| 20260508031001 | 59 | 180 | 11.3 | 22.6 | 0.00 | 1.53 | 0.00 | 85 | 996.6 |
| 20260508030008 | 59 | 175 | 13.0 | 21.7 | 0.00 | 1.53 | 0.00 | 84 | 996.4 |
| 20260508025503 | 59 | 288 | 13.9 | 21.7 | 0.00 | 1.53 | 1.53 | 85 | 996.3 |
| 20260508025003 | 59 | 308 | 13.0 | 20.9 | 0.00 | 1.53 | 1.53 | 85 | 996.8 |
| 20260508024003 | 60 | 176 | 13.9 | 20.9 | 0.00 | 1.53 | 1.53 | 87 | 997.5 |
| 20260508023502 | 59 | 169 | 13.9 | 22.6 | 0.00 | 1.53 | 1.53 | 86 | 997.1 |
| 20260508023005 | 60 | 163 | 13.9 | 22.6 | 0.00 | 1.53 | 1.53 | 87 | 997.3 |
| 20260508022502 | 59 | 258 | 13.9 | 23.5 | 0.00 | 1.53 | 1.53 | 85 | 997.3 |
| 20260508022003 | 60 | 170 | 13.9 | 24.3 | 0.00 | 1.53 | 1.53 | 86 | 997.2 |
| 20260508021504 | 60 | 184 | 14.8 | 24.3 | 0.00 | 1.53 | 1.53 | 85 | 997.1 |
| 20260508021005 | 60 | 208 | 13.0 | 20.9 | 0.00 | 1.53 | 1.53 | 86 | 997.1 |
| 20260508020500 | 60 | 180 | 13.0 | 20.0 | 0.00 | 1.53 | 1.53 | 87 | 997.0 |
| 20260508015005 | 60 | 162 | 13.9 | 22.6 | 0.00 | 1.53 | 1.53 | 87 | 997.2 |
| 20260508014005 | 60 | 340 | 13.9 | 24.3 | 0.00 | 1.53 | 1.53 | 86 | 997.2 |
| 20260508013503 | 60 | 172 | 14.8 | 26.9 | 0.00 | 1.53 | 1.53 | 87 | 997.2 |
| 20260508013008 | 60 | 196 | 14.8 | 26.9 | 0.00 | 1.53 | 1.53 | 88 | 997.2 |
| 20260508012503 | 60 | 173 | 13.0 | 22.6 | 0.00 | 1.53 | 1.53 | 89 | 997.5 |
| 20260508012006 | 60 | 166 | 12.2 | 21.7 | 0.00 | 1.53 | 1.53 | 88 | 997.6 |
| 20260508011502 | 60 | 336 | 13.0 | 23.5 | 0.00 | 1.53 | 1.53 | 88 | 997.9 |
| 20260508010505 | 60 | 178 | 18.2 | 29.5 | 0.00 | 1.53 | 1.53 | 88 | 998.2 |
| 20260508010011 | 60 | 334 | 20.9 | 29.5 | 0.00 | 1.53 | 1.53 | 89 | 998.5 |
| 20260508005503 | 60 | 326 | 21.7 | 30.4 | 0.00 | 1.54 | 1.53 | 89 | 998.8 |
| 20260508005009 | 60 | 316 | 20.9 | 30.4 | 0.00 | 1.54 | 1.53 | 89 | 999.0 |
| 20260508003503 | 60 | 293 | 15.6 | 27.8 | 0.00 | 1.54 | 1.53 | 91 | 998.7 |
| 20260508002503 | 61 | 161 | 13.9 | 22.6 | 0.00 | 1.54 | 1.53 | 92 | 998.0 |
| 20260508002010 | 60 | 198 | 13.9 | 21.7 | 0.00 | 1.54 | 1.53 | 91 | 997.8 |
| 20260508001503 | 61 | 207 | 13.0 | 21.7 | 0.00 | 1.54 | 1.53 | 91 | 998.1 |
| 20260508000503 | 61 | 334 | 14.8 | 25.2 | 0.00 | 1.54 | 1.53 | 91 | 998.2 |
| 20260507235501 | 61 | 162 | 19.1 | 31.3 | 0.00 | 1.54 | 1.53 | 91 | 998.6 |
| 20260507234503 | 61 | 319 | 24.3 | 32.2 | 0.00 | 1.54 | 1.53 | 91 | 998.7 |
| 20260507233502 | 61 | 230 | 21.7 | 30.4 | 0.00 | 1.54 | 1.53 | 92 | 998.9 |
| 20260507233002 | 62 | 171 | 19.1 | 27.8 | 0.00 | 1.54 | 1.53 | 93 | 999.0 |
| 20260507232503 | 62 | 241 | 18.2 | 25.2 | 0.00 | 1.54 | 1.53 | 92 | 999.1 |
| 20260507231501 | 62 | 209 | 17.4 | 23.5 | 0.00 | 1.54 | 1.53 | 91 | 999.4 |
| 20260507225503 | 61 | 336 | 11.3 | 21.7 | 0.00 | 1.54 | 1.53 | 92 | 999.2 |
| 20260507225003 | 62 | 330 | 9.6 | 16.5 | 0.00 | 1.54 | 1.53 | 92 | 999.1 |
| 20260507224502 | 62 | 170 | 11.3 | 18.2 | 0.00 | 1.54 | 1.53 | 92 | 998.9 |
| 20260507224006 | 61 | 170 | 11.3 | 18.2 | 0.00 | 1.54 | 1.53 | 91 | 999.0 |
| 20260507223501 | 61 | 196 | 10.4 | 18.2 | 0.00 | 1.54 | 1.53 | 92 | 999.0 |
| 20260507222504 | 61 | 173 | 11.3 | 18.2 | 0.00 | 1.54 | 1.53 | 91 | 998.9 |
| 20260507222003 | 61 | 222 | 11.3 | 17.4 | 0.00 | 1.54 | 1.53 | 92 | 998.8 |
| 20260507221502 | 61 | 331 | 10.4 | 17.4 | 0.00 | 1.54 | 1.53 | 92 | 998.8 |
| 20260507221003 | 61 | 308 | 9.6 | 17.4 | 0.00 | 1.54 | 1.53 | 93 | 998.7 |
| 20260507215503 | 61 | 199 | 11.3 | 19.1 | 0.00 | 1.54 | 1.53 | 93 | 998.0 |
| 20260507214502 | 61 | 235 | 9.6 | 16.5 | 0.00 | 1.54 | 1.53 | 96 | 997.7 |
| 20260507214003 | 61 | 326 | 8.7 | 14.8 | 0.00 | 1.54 | 1.53 | 96 | 997.6 |
| 20260507213501 | 61 | 204 | 8.7 | 14.8 | 0.00 | 1.54 | 1.53 | 96 | 997.6 |
| 20260507213003 | 61 | 171 | 7.8 | 14.8 | 0.00 | 1.54 | 1.53 | 97 | 997.8 |
| 20260507212501 | 61 | 173 | 7.0 | 13.9 | 0.00 | 1.54 | 1.53 | 98 | 998.1 |
| 20260507212003 | 61 | 245 | 8.7 | 14.8 | 0.00 | 1.54 | 1.53 | 98 | 998.5 |
| 20260507211502 | 61 | 172 | 11.3 | 19.1 | 0.00 | 1.54 | 1.53 | 98 | 998.4 |
| 20260507211002 | 60 | 277 | 14.8 | 19.1 | 0.00 | 1.54 | 1.53 | 99 | 998.3 |
| 20260507210502 | 60 | 177 | 16.5 | 20.9 | 0.00 | 1.54 | 1.53 | 99 | 998.4 |
| 20260507210007 | 60 | 168 | 16.5 | 20.9 | 0.01 | 1.54 | 1.53 | 99 | 998.2 |
| 20260507205502 | 60 | 170 | 16.5 | 20.9 | 0.01 | 1.54 | 1.53 | 100 | 998.6 |
| 20260507204501 | 60 | 167 | 16.5 | 22.6 | 0.01 | 1.54 | 1.53 | 100 | 998.7 |
| 20260507204004 | 60 | 169 | 13.9 | 22.6 | 0.01 | 1.54 | 1.53 | 99 | 999.0 |
| 20260507203503 | 62 | 334 | 11.3 | 15.6 | 0.01 | 1.54 | 1.53 | 100 | 999.0 |
| 20260507203006 | 62 | 336 | 11.3 | 15.6 | 0.01 | 1.54 | 1.53 | 100 | 999.0 |
| 20260507202502 | 62 | 180 | 12.2 | 17.4 | 0.01 | 1.54 | 1.53 | 100 | 999.3 |
| 20260507202002 | 61 | 207 | 11.3 | 17.4 | 0.01 | 1.54 | 1.53 | 100 | 999.2 |
| 20260507201502 | 61 | 329 | 10.4 | 17.4 | 0.01 | 1.54 | 1.53 | 100 | 999.4 |
| 20260507201003 | 62 | 266 | 10.4 | 17.4 | 0.01 | 1.54 | 1.53 | 100 | 999.6 |
| 20260507200504 | 61 | 175 | 8.7 | 17.4 | 0.01 | 1.54 | 1.53 | 100 | 999.5 |
| 20260507200007 | 61 | 242 | 7.8 | 12.2 | 0.00 | 1.53 | 1.52 | 100 | 999.4 |
| 20260507195503 | 61 | 338 | 6.1 | 11.3 | 0.00 | 1.53 | 1.52 | 100 | 999.4 |
| 20260507195003 | 61 | 260 | 4.3 | 10.4 | 0.00 | 1.53 | 1.52 | 100 | 999.4 |
| 20260507194502 | 61 | 345 | 4.3 | 7.8 | 0.00 | 1.53 | 1.52 | 100 | 998.9 |
| 20260507194004 | 61 | 339 | 3.5 | 7.0 | 0.00 | 1.53 | 1.52 | 100 | 999.1 |
| 20260507193501 | 61 | 340 | 3.5 | 7.8 | 0.00 | 1.53 | 1.52 | 100 | 998.7 |
| 20260507193006 | 61 | 343 | 3.5 | 7.8 | 0.00 | 1.53 | 1.52 | 100 | 998.6 |
| 20260507192502 | 61 | 338 | 3.5 | 7.0 | 0.00 | 1.53 | 1.52 | 100 | 998.5 |
| 20260507192005 | 61 | 343 | 4.3 | 7.8 | 0.00 | 1.53 | 1.52 | 100 | 998.6 |
| 20260507191502 | 61 | 345 | 4.3 | 7.8 | 0.00 | 1.53 | 1.52 | 100 | 998.8 |
| 20260507191002 | 61 | 329 | 5.2 | 8.7 | 0.00 | 1.53 | 1.52 | 100 | 998.9 |
| 20260507190501 | 61 | 336 | 6.1 | 8.7 | 0.00 | 1.53 | 1.52 | 100 | 999.0 |
| 20260507190008 | 61 | 343 | 5.2 | 8.7 | 0.00 | 1.53 | 1.52 | 100 | 999.0 |
| 20260507185004 | 61 | 334 | 4.3 | 7.0 | 0.00 | 1.53 | 1.52 | 100 | 999.0 |
| 20260507184504 | 61 | 331 | 4.3 | 7.0 | 0.00 | 1.53 | 1.52 | 100 | 998.7 |
| 20260507183502 | 62 | 336 | 3.5 | 6.1 | 0.00 | 1.53 | 1.52 | 100 | 998.3 |
| 20260507181501 | 62 | 331 | 4.3 | 7.0 | 0.02 | 1.53 | 1.52 | 100 | 999.2 |
| 20260507181004 | 62 | 308 | 4.3 | 7.0 | 0.02 | 1.53 | 1.52 | 100 | 999.2 |
| 20260507180503 | 62 | 338 | 3.5 | 5.2 | 0.02 | 1.53 | 1.52 | 100 | 999.2 |
| 20260507180006 | 62 | 338 | 3.5 | 5.2 | 0.02 | 1.53 | 1.52 | 100 | 999.3 |
| 20260507175501 | 62 | 332 | 3.5 | 5.2 | 0.02 | 1.53 | 1.52 | 100 | 999.2 |
| 20260507175004 | 62 | 229 | 3.5 | 5.2 | 0.03 | 1.53 | 1.52 | 100 | 999.0 |
| 20260507174501 | 62 | 341 | 3.5 | 6.1 | 0.03 | 1.53 | 1.52 | 100 | 999.0 |
| 20260507174002 | 62 | 335 | 3.5 | 6.1 | 0.04 | 1.53 | 1.52 | 100 | 999.4 |
| 20260507173502 | 62 | 333 | 5.2 | 9.6 | 0.04 | 1.53 | 1.52 | 100 | 999.1 |
| 20260507173006 | 62 | 336 | 6.1 | 9.6 | 0.05 | 1.53 | 1.52 | 100 | 999.6 |
| 20260507172501 | 62 | 329 | 5.2 | 9.6 | 0.04 | 1.52 | 1.51 | 100 | 1000.0 |
| 20260507172003 | 62 | 336 | 3.5 | 7.8 | 0.04 | 1.51 | 1.50 | 100 | 1000.0 |
| 20260507171003 | 62 | 329 | 3.5 | 8.7 | 0.06 | 1.51 | 1.50 | 100 | 999.7 |
| 20260507170501 | 62 | 324 | 1.7 | 6.1 | 0.06 | 1.50 | 1.50 | 100 | 999.3 |
| 20260507165501 | 62 | 337 | 4.3 | 6.1 | 0.09 | 1.50 | 1.50 | 100 | 999.8 |
| 20260507165002 | 62 | 334 | 4.3 | 6.1 | 0.09 | 1.50 | 1.49 | 100 | 1000.0 |
| 20260507164502 | 61 | 336 | 4.3 | 6.1 | 0.09 | 1.50 | 1.49 | 100 | 1000.1 |
| 20260507164003 | 61 | 336 | 4.3 | 7.0 | 0.10 | 1.49 | 1.48 | 100 | 1000.0 |
| 20260507163503 | 61 | 317 | 4.3 | 7.0 | 0.12 | 1.49 | 1.48 | 100 | 1000.2 |
| 20260507163004 | 61 | 336 | 3.5 | 7.0 | 0.12 | 1.48 | 1.47 | 100 | 999.8 |
| 20260507162502 | 61 | 338 | 3.5 | 6.1 | 0.14 | 1.48 | 1.47 | 100 | 999.8 |
| 20260507162002 | 61 | 337 | 2.6 | 6.1 | 0.15 | 1.47 | 1.46 | 100 | 1000.0 |
| 20260507161502 | 61 | 341 | 1.7 | 4.3 | 0.15 | 1.46 | 1.46 | 99 | 999.7 |
| 20260507161002 | 61 | 343 | 3.5 | 7.8 | 0.15 | 1.46 | 1.45 | 100 | 999.6 |
| 20260507160503 | 61 | 331 | 5.2 | 7.8 | 0.15 | 1.45 | 1.44 | 99 | 1000.1 |
| 20260507155500 | 61 | 324 | 9.6 | 15.6 | 0.17 | 1.42 | 1.41 | 99 | 1001.2 |
| 20260507155001 | 61 | 329 | 10.4 | 16.5 | 0.17 | 1.41 | 1.40 | 99 | 1001.2 |
| 20260507154500 | 61 | 328 | 9.6 | 16.5 | 0.18 | 1.40 | 1.39 | 99 | 1001.4 |
| 20260507154003 | 61 | 316 | 8.7 | 13.9 | 0.17 | 1.39 | 1.38 | 99 | 1000.8 |
| 20260507153501 | 61 | 333 | 8.7 | 13.9 | 0.17 | 1.37 | 1.36 | 99 | 1000.7 |
| 20260507153003 | 61 | 335 | 9.6 | 13.9 | 0.16 | 1.35 | 1.35 | 99 | 1000.6 |
| 20260507152502 | 61 | 331 | 10.4 | 14.8 | 0.15 | 1.34 | 1.33 | 99 | 1001.0 |
| 20260507152004 | 61 | 338 | 12.2 | 19.1 | 0.14 | 1.32 | 1.31 | 99 | 1000.9 |
| 20260507151501 | 61 | 335 | 12.2 | 19.1 | 0.14 | 1.31 | 1.31 | 99 | 1001.0 |
| 20260507151003 | 61 | 338 | 11.3 | 19.1 | 0.13 | 1.31 | 1.30 | 99 | 1001.1 |
| 20260507150501 | 62 | 334 | 11.3 | 18.2 | 0.13 | 1.29 | 1.28 | 99 | 1001.1 |
| 20260507150009 | 61 | 275 | 12.2 | 19.1 | 0.12 | 1.28 | 1.27 | 99 | 1001.2 |
| 20260507145502 | 61 | 294 | 12.2 | 19.1 | 0.09 | 1.25 | 1.24 | 99 | 1001.7 |
| 20260507145003 | 61 | 329 | 13.0 | 20.9 | 0.08 | 1.24 | 1.23 | 99 | 1001.4 |
| 20260507144501 | 61 | 174 | 13.9 | 20.9 | 0.07 | 1.22 | 1.21 | 99 | 1001.3 |
| 20260507144003 | 61 | 334 | 15.6 | 23.5 | 0.06 | 1.21 | 1.20 | 99 | 1001.4 |
| 20260507143502 | 61 | 329 | 19.1 | 24.3 | 0.06 | 1.20 | 1.20 | 99 | 1001.5 |
| 20260507143003 | 61 | 163 | 19.1 | 26.1 | 0.05 | 1.20 | 1.19 | 99 | 1001.8 |
| 20260507142502 | 61 | 168 | 18.2 | 30.4 | 0.05 | 1.19 | 1.18 | 99 | 1002.0 |
| 20260507142003 | 61 | 183 | 15.6 | 30.4 | 0.04 | 1.18 | 1.17 | 99 | 1002.1 |
| 20260507141502 | 62 | 295 | 13.9 | 26.1 | 0.03 | 1.17 | 1.17 | 99 | 1002.1 |
| 20260507141003 | 62 | 320 | 13.0 | 22.6 | 0.03 | 1.17 | 1.17 | 99 | 1002.1 |
| 20260507140501 | 62 | 335 | 13.0 | 20.0 | 0.02 | 1.17 | 1.16 | 100 | 1001.4 |
| 20260507140007 | 62 | 337 | 13.0 | 20.9 | 0.02 | 1.16 | 1.15 | 100 | 1000.9 |
| 20260507135502 | 62 | 336 | 12.2 | 20.9 | 0.02 | 1.16 | 1.15 | 100 | 1000.6 |
| 20260507135002 | 62 | 338 | 9.6 | 18.2 | 0.02 | 1.16 | 1.15 | 99 | 1000.4 |
| 20260507134501 | 62 | 335 | 8.7 | 13.0 | 0.01 | 1.15 | 1.14 | 99 | 1000.3 |
| 20260507133502 | 62 | 336 | 7.8 | 13.9 | 0.02 | 1.15 | 1.14 | 99 | 1000.0 |
| 20260507133003 | 61 | 346 | 7.8 | 13.9 | 0.02 | 1.15 | 1.14 | 99 | 1000.2 |
| 20260507132501 | 61 | 341 | 8.7 | 13.9 | 0.01 | 1.14 | 1.13 | 99 | 1000.2 |
| 20260507132002 | 61 | 329 | 8.7 | 16.5 | 0.02 | 1.14 | 1.13 | 99 | 999.8 |
| 20260507131502 | 61 | 347 | 8.7 | 16.5 | 0.02 | 1.14 | 1.13 | 99 | 999.6 |
| 20260507131003 | 61 | 346 | 9.6 | 15.6 | 0.02 | 1.14 | 1.13 | 99 | 999.6 |
| 20260507130502 | 61 | 348 | 8.7 | 15.6 | 0.02 | 1.14 | 1.13 | 99 | 999.5 |
| 20260507130005 | 61 | 341 | 7.0 | 13.9 | 0.02 | 1.14 | 1.13 | 99 | 999.5 |
| 20260507125003 | 61 | 359 | 5.2 | 12.2 | 0.03 | 1.14 | 1.13 | 99 | 999.2 |
| 20260507124502 | 61 | 2 | 6.1 | 13.9 | 0.04 | 1.14 | 1.13 | 99 | 998.3 |
| 20260507124002 | 61 | 14 | 7.8 | 13.9 | 0.04 | 1.14 | 1.13 | 99 | 997.7 |
| 20260507123502 | 61 | 348 | 8.7 | 15.6 | 0.04 | 1.13 | 1.13 | 99 | 998.2 |
| 20260507122502 | 60 | 354 | 7.8 | 15.6 | 0.05 | 1.13 | 1.13 | 99 | 997.7 |
| 20260507122003 | 60 | 348 | 7.8 | 15.6 | 0.05 | 1.13 | 1.12 | 99 | 998.1 |
| 20260507121501 | 60 | 342 | 8.7 | 15.6 | 0.06 | 1.13 | 1.12 | 99 | 998.1 |
| 20260507121007 | 60 | 343 | 8.7 | 15.6 | 0.06 | 1.12 | 1.11 | 99 | 998.6 |
| 20260507120502 | 60 | 2 | 8.7 | 17.4 | 0.07 | 1.12 | 1.11 | 99 | 998.6 |
| 20260507120006 | 60 | 22 | 7.8 | 17.4 | 0.08 | 1.12 | 1.11 | 99 | 998.6 |